{"data":{"norad_id":66099,"intl_designator":"2025-236P","name":"STARLINK-34460","alt_names":[],"object_type":"PAYLOAD","status":"ACTIVE","operator":null,"country":"US","launch_date":"2025-10-19","launch_site_code":"AFWTR","launch_vehicle":null,"mission":null,"orbit_class":"UNKNOWN","rcs_meters":null,"size_class":null,"mass_kg":null,"dimensions":null,"purposes":["comms"],"wikipedia_slug":null,"has_3d_model":false,"image_url":null,"decayed_at":null,"tle_current":{"epoch":"2026-09-20T06:23:49.008480Z","epoch_age_seconds":120279,"freshness":"FRESH","line1":"1 66099U 25236P   26263.26653945  .00016874  00000+0  50929-3 0  9990","line2":"2 66099  53.1584 278.7730 0001131 126.6624 233.4483 15.34407857 52755","mean_motion":15.34407857,"eccentricity":0.0001131,"inclination_deg":53.1584,"raan_deg":278.773,"arg_perigee_deg":126.6624,"mean_anomaly_deg":233.4483,"bstar":0.00050929,"rev_number":5275,"period_min":93.84727752994,"perigee_km":461.90619125697,"apogee_km":463.45358403696,"semimajor_km":6840.816887647,"source":"CELESTRAK","updated_at":"2026-09-21T09:00:35.802801Z"}}}